Location: Cedar Brake
(32.2526°N, 97.8459°W)
Time: 17:35:10
(UTC+00:00)

USA 59 Rocket - Pass Details

Date: 22 April 2026
Orbit: 367 x 1664 km, 63.3° (Epoch: 9 May)

Event Time Altitude Azimuth Distance (km) Brightness Sun altitude
Rises 04:14:40 0° 308° (NW) 2,716 4.4 -35.0°
Reaches altitude 10° 04:17:04 10° 290° (WNW) 1,988 3.3 -35.4°
Enters shadow 04:18:13 15° 277° (W) 1,749 2.8 -35.5°
